Weather reports worldwide

Advertisment
The Dalles, or, United States of America (2074393): temperature & dewpoint: 17.01.2019 15:00:00 - 23.01.2019 15:00:00 (PST)The Dalles, or, United States of America (2074393): wind speed & gusts: 17.01.2019 15:00:00 - 23.01.2019 15:00:00 (PST)The Dalles, or, United States of America (2074393): wind direction: 17.01.2019 15:00:00 - 23.01.2019 15:00:00 (PST)The Dalles, or, United States of America (2074393): reduced air pressure: 17.01.2019 15:00:00 - 23.01.2019 15:00:00 (PST)The Dalles, or, United States of America (2074393): visibility: 17.01.2019 15:00:00 - 23.01.2019 15:00:00 (PST)The Dalles, or, United States of America (2074393): precipitation: 17.01.2019 15:00:00 - 23.01.2019 15:00:00 (PST)
Date & Time tt [°C] td [°C] ff [km/h] ff [kn] fx [km/h] fx [kn] dd ppp [hPa] vv [km] rr [mm]
23.01.2019 15:00:00 12,8 6,1 29 16 - - WNW 1026,7 16 -
23.01.2019 14:00:00 13,9 6,1 34 18 - - NW 1025,8 16 -
23.01.2019 13:00:00 12,8 5,6 29 16 57 31 NW 1024,9 16 -
23.01.2019 12:00:00 12,8 5,6 42 23 67 36 NW 1023,6 16 -
23.01.2019 11:00:00 12,8 6,1 39 21 65 35 NNW 1021,2 16 -
23.01.2019 10:00:00 13,3 6,1 48 26 74 40 NW 1017,7 16 -
23.01.2019 09:00:00 12,8 6,1 39 21 68 37 NNW 1018,0 16 -
23.01.2019 08:00:00 13,3 5,6 54 29 83 45 WNW 1017,3 16 -
23.01.2019 07:00:00 11,7 5,6 29 16 52 28 W 1017,7 16 -
23.01.2019 06:00:00 11,1 6,7 8 4 59 32 NW 1017,7 16 -
23.01.2019 05:00:00 6,1 3,3 9 5 - - - 1016,5 16 -
23.01.2019 04:00:00 2,8 1,7 11 6 - - - 1016,5 16 -
23.01.2019 03:00:00 1,1 0,6 5 3 - - - 1018,3 11 -
23.01.2019 02:00:00 1,7 1,1 9 5 - - E 1019,5 16 -
23.01.2019 01:00:00 2,2 1,1 5 3 - - W 1020,5 2,0 -
23.01.2019 00:00:00 2,2 1,7 15 8 - - NE 1021,2 2,8 0,0
22.01.2019 23:00:00 3,9 3,3 5 3 - - SSW 1021,5 10 -
22.01.2019 22:00:00 3,9 3,3 0 0 - - N 1022,2 6 -
22.01.2019 21:00:00 3,9 2,8 0 0 - - N 1023,5 10 -
22.01.2019 20:00:00 4,4 3,3 5 3 - - SE 1023,9 11 -
22.01.2019 19:00:00 4,4 3,9 0 0 - - N 1025,2 16 0,3
22.01.2019 18:00:00 4,4 3,3 0 0 - - N 1026,1 16 0,5
22.01.2019 17:00:00 5,0 3,3 0 0 - - N 1026,5 16 0,8
22.01.2019 16:00:00 5,6 2,8 0 0 - - N 1027,3 15 0,5
22.01.2019 15:00:00 6,1 2,8 0 0 - - N 1027,8 13 0,3
22.01.2019 14:00:00 6,1 1,7 0 0 - - N 1028,0 16 -
22.01.2019 13:00:00 5,6 1,7 0 0 - - N 1029,3 16 -
22.01.2019 12:00:00 5,0 1,1 0 0 - - N 1030,1 16 -
22.01.2019 11:00:00 3,9 0,6 0 0 - - N 1031,5 16 -
22.01.2019 10:00:00 3,9 0,6 0 0 - - N 1031,7 16 -
22.01.2019 09:00:00 2,8 0,6 0 0 - - N 1031,6 16 -
22.01.2019 08:00:00 1,7 0,0 0 0 - - N 1031,8 16 -
22.01.2019 07:00:00 1,1 0,0 0 0 - - N 1031,9 16 -
22.01.2019 06:00:00 1,7 0,0 0 0 - - N 1031,9 16 -
22.01.2019 05:00:00 1,7 -0,6 0 0 - - N 1032,1 16 -
22.01.2019 04:00:00 1,7 -0,6 0 0 - - N 1032,1 16 -
22.01.2019 03:00:00 2,2 -0,6 0 0 - - N 1032,2 16 -
22.01.2019 02:00:00 1,7 -0,6 0 0 - - N 1032,3 16 -
22.01.2019 01:00:00 2,2 -1,1 8 4 - - ESE 1031,5 16 -
22.01.2019 00:00:00 1,7 -1,1 0 0 - - N 1031,8 16 -
21.01.2019 23:00:00 2,2 -1,1 0 0 - - N 1031,6 16 -
21.01.2019 22:00:00 1,7 -1,1 5 3 - - SSE 1031,1 16 -
21.01.2019 21:00:00 1,7 -1,7 5 3 - - NE 1031,1 16 -
21.01.2019 20:00:00 1,7 -1,7 0 0 - - N 1030,4 16 -
21.01.2019 19:00:00 4,4 -1,7 0 0 - - N 1029,8 16 -
21.01.2019 18:00:00 5,6 -1,1 9 5 - - WNW 1029,5 10 -
21.01.2019 17:00:00 6,7 -1,1 15 8 - - W 1028,8 16 -
21.01.2019 16:00:00 8,9 -0,6 18 10 - - WNW 1027,9 16 -
21.01.2019 15:00:00 9,4 0,0 22 12 50 27 WNW 1027,0 16 -
21.01.2019 14:00:00 9,4 0,6 26 14 48 26 NW 1026,4 16 -
21.01.2019 13:00:00 9,4 -0,6 31 17 48 26 W 1025,9 16 -
21.01.2019 12:00:00 8,3 1,7 26 14 - - NNW 1025,9 16 -
21.01.2019 11:00:00 6,7 1,7 11 6 - - NW 1025,3 16 -
21.01.2019 10:00:00 5,0 1,1 24 13 - - NNW 1024,1 16 -
21.01.2019 09:00:00 3,9 0,6 22 12 - - NNW 1022,9 16 -
21.01.2019 08:00:00 3,3 0,6 28 15 - - NW 1021,8 16 -
21.01.2019 07:00:00 3,3 0,6 16 9 - - NW 1020,9 16 -
21.01.2019 06:00:00 1,7 -0,6 8 4 - - - 1019,5 16 -
21.01.2019 05:00:00 1,1 -0,6 8 4 - - ESE 1018,7 16 -
21.01.2019 04:00:00 1,1 -0,6 8 4 - - ESE 1018,0 16 -
21.01.2019 03:00:00 1,1 0,0 5 3 - - SSW 1017,4 16 -
21.01.2019 02:00:00 1,1 0,0 11 6 - - SSW 1016,7 16 -
21.01.2019 01:00:00 2,2 1,1 5 3 - - WSW 1016,0 16 -
21.01.2019 00:00:00 3,3 1,7 5 3 - - SW 1015,3 16 -
20.01.2019 23:00:00 2,8 2,2 11 6 - - WSW 1014,8 16 -
20.01.2019 22:00:00 3,3 2,2 0 0 - - N 1014,3 15 -
20.01.2019 21:00:00 3,3 2,2 5 3 - - - 1013,9 15 -
20.01.2019 20:00:00 3,9 2,8 5 3 - - NW 1013,4 16 -
20.01.2019 19:00:00 4,4 3,3 11 6 - - NW 1013,3 16 -
20.01.2019 18:00:00 4,4 3,3 0 0 - - N 1012,6 16 -
20.01.2019 17:00:00 5,0 3,3 11 6 - - NW 1012,5 10 -
20.01.2019 16:00:00 5,0 3,3 11 6 - - NNW 1012,0 16 0,3
20.01.2019 15:00:00 5,0 3,3 8 4 - - NNW 1011,9 16 0,8
20.01.2019 14:00:00 5,6 3,3 9 5 - - NNW 1011,6 13 0,5
20.01.2019 13:00:00 5,6 3,9 8 4 - - WNW 1011,6 16 0,0
20.01.2019 12:00:00 5,6 3,9 0 0 - - N 1012,2 16 0,5
20.01.2019 11:00:00 5,0 3,3 5 3 - - N 1012,5 16 0,5
20.01.2019 10:00:00 4,4 2,8 5 3 - - SSW 1012,1 11 0,8
20.01.2019 09:00:00 4,4 3,9 0 0 - - N 1012,1 8 0,3
20.01.2019 08:00:00 3,9 2,8 0 0 - - N 1012,0 6 0,3
20.01.2019 07:00:00 3,9 2,8 0 0 - - N 1012,4 8 0,3
20.01.2019 06:00:00 3,3 2,8 8 4 - - NNW 1013,5 8 0,3
20.01.2019 05:00:00 3,9 3,3 0 0 - - N 1014,5 2,8 0,0
20.01.2019 04:00:00 4,4 3,3 0 0 - - N 1016,1 16 -
20.01.2019 03:00:00 4,4 3,3 0 0 - - N 1017,6 16 -
20.01.2019 02:00:00 3,9 2,8 5 3 - - NW 1018,3 4,0 -
20.01.2019 01:00:00 4,4 3,3 0 0 - - N 1019,4 16 -
20.01.2019 00:00:00 4,4 3,3 0 0 - - N 1020,2 16 -
19.01.2019 23:00:00 4,4 3,3 8 4 - - NW 1020,7 16 -
19.01.2019 22:00:00 3,9 3,3 0 0 - - N 1021,3 2,4 -
19.01.2019 21:00:00 4,4 3,9 8 4 - - WNW 1021,8 16 -
19.01.2019 20:00:00 5,0 3,9 0 0 - - N 1021,8 16 -
19.01.2019 19:00:00 5,6 4,4 0 0 - - N 1022,0 16 -
19.01.2019 18:00:00 6,7 4,4 0 0 - - N 1022,3 16 -
19.01.2019 17:00:00 8,3 5,0 5 3 - - - 1022,2 16 -
19.01.2019 16:00:00 8,9 5,6 8 4 - - NW 1021,9 16 -
19.01.2019 15:00:00 8,9 6,1 0 0 - - N 1021,7 16 -
19.01.2019 14:00:00 8,3 5,6 0 0 - - N 1021,7 16 -
19.01.2019 13:00:00 6,7 5,0 0 0 - - N 1022,2 16 -
19.01.2019 12:00:00 5,6 3,9 5 3 - - SSW 1022,4 16 -
19.01.2019 11:00:00 5,0 3,3 5 3 - - SW 1022,7 16 -
19.01.2019 10:00:00 4,4 3,3 5 3 - - WSW 1022,2 16 -
19.01.2019 09:00:00 3,9 3,3 0 0 - - N 1021,6 4,8 -
19.01.2019 08:00:00 3,3 2,8 9 5 - - S 1021,1 4,0 0,0
19.01.2019 07:00:00 3,3 2,2 8 4 - - NNE 1020,2 16 0,0
19.01.2019 06:00:00 3,9 2,8 8 4 - - NW 1019,7 8 0,5
19.01.2019 05:00:00 3,9 3,3 0 0 - - N 1019,0 16 0,3
19.01.2019 04:00:00 3,9 2,8 11 6 - - NW 1018,7 10 0,3
19.01.2019 03:00:00 3,9 2,8 0 0 - - N 1018,3 8 0,5
19.01.2019 02:00:00 3,9 2,8 9 5 - - NNW 1017,9 6 0,3
19.01.2019 01:00:00 3,9 2,8 0 0 - - N 1017,6 8 0,0
19.01.2019 00:00:00 3,9 2,8 8 4 - - N 1017,7 8 1,0
18.01.2019 23:00:00 3,3 2,8 9 5 - - NNW 1017,4 6 3,6
18.01.2019 22:00:00 3,9 2,2 15 8 - - NNW 1017,3 16 0,0
18.01.2019 21:00:00 3,9 2,8 0 0 - - N 1018,0 16 0,0
18.01.2019 20:00:00 3,9 2,8 9 5 - - WSW 1018,3 8 0,8
18.01.2019 19:00:00 3,9 3,3 8 4 - - SW 1019,3 3,2 1,0
18.01.2019 18:00:00 3,3 3,3 5 3 - - SW 1019,3 4,0 0,5
18.01.2019 17:00:00 3,9 3,3 9 5 - - SE 1019,7 8 1,5
18.01.2019 16:00:00 3,3 2,2 11 6 - - ESE 1020,8 6 1,5
18.01.2019 15:00:00 3,9 1,7 5 3 - - - 1021,6 8 0,3
18.01.2019 14:00:00 3,9 1,7 0 0 - - N 1021,4 11 -
18.01.2019 13:00:00 3,3 1,7 5 3 - - N 1022,6 11 -
18.01.2019 12:00:00 2,2 1,7 8 4 - - SSW 1023,9 4,8 -
18.01.2019 11:00:00 2,2 1,7 0 0 - - N 1024,3 8 -
18.01.2019 10:00:00 0,6 0,0 5 3 - - E 1024,3 3,2 -
18.01.2019 09:00:00 0,0 -0,6 0 0 - - N 1023,8 - -
18.01.2019 08:00:00 0,0 -0,6 0 0 - - N 1023,4 0,4 -
18.01.2019 07:00:00 0,0 -0,6 0 0 - - N 1023,0 0,4 0,0
18.01.2019 06:00:00 0,6 -0,6 0 0 - - N 1022,4 0,4 0,0
18.01.2019 05:00:00 0,6 0,0 0 0 - - N 1021,7 0,4 -
18.01.2019 04:00:00 0,6 0,0 0 0 - - N 1021,2 0,8 -
18.01.2019 03:00:00 0,0 0,0 0 0 - - N 1021,0 0,4 -
18.01.2019 02:00:00 0,6 0,0 0 0 - - N 1019,7 0,8 -
18.01.2019 01:00:00 0,6 0,0 8 4 - - NE 1018,4 0,8 -
18.01.2019 00:00:00 1,1 0,6 0 0 - - N 1017,4 0,8 -
17.01.2019 23:00:00 0,6 0,0 0 0 - - N 1016,1 3,2 -
17.01.2019 22:00:00 1,1 0,0 8 4 - - SE 1014,8 4,8 -
17.01.2019 21:00:00 1,7 0,6 5 3 - - NNW 1013,4 3,2 -
17.01.2019 20:00:00 0,6 0,0 5 3 - - NW 1012,6 1,6 -
17.01.2019 19:00:00 1,7 0,6 0 0 - - N 1011,6 6 -
17.01.2019 18:00:00 2,8 1,1 0 0 - - N 1010,7 10 0,0
17.01.2019 17:00:00 2,2 1,1 0 0 - - N 1009,6 10 -
17.01.2019 16:00:00 2,8 1,1 0 0 - - N 1008,8 10 -
17.01.2019 15:00:00 2,8 1,1 5 3 - - NNW 1007,8 10 -

tt = temperature
td = dewpoint
ff = wind speed
fx = gusts
dd = wind direction
ppp = reduced air pressure
vv = visibility
rr = precipitation

Next stations